| time (UTC) | temp F | wind direction | speed MPH | gust MPH | rain 1hr in | rain 24hr in | rain mn in | humidity % | barometer mb |
| 20260506134546 | 74 | 217 | 14.0 | 25.0 | 0.00 | 0.00 | 0.00 | 45 | 1010.0 |
| 20260506133045 | 73 | 218 | 11.0 | 18.0 | 0.00 | 0.00 | 0.00 | 46 | 1010.1 |
| 20260506131550 | 73 | 221 | 12.0 | 19.0 | 0.00 | 0.00 | 0.00 | 47 | 1010.2 |
| 20260506130057 | 72 | 201 | 10.0 | 24.0 | 0.00 | 0.00 | 0.00 | 48 | 1010.1 |
| 20260506124549 | 70 | 216 | 9.0 | 21.0 | 0.00 | 0.00 | 0.00 | 52 | 1010.1 |
| 20260506123050 | 69 | 218 | 9.0 | 16.0 | 0.00 | 0.00 | 0.00 | 53 | 1010.0 |
| 20260506121549 | 67 | 205 | 10.0 | 20.0 | 0.00 | 0.00 | 0.00 | 52 | 1009.9 |
| 20260506120052 | 68 | 191 | 9.0 | 20.0 | 0.00 | 0.00 | 0.00 | 51 | 1009.9 |
| 20260506114559 | 68 | 208 | 10.0 | 17.0 | 0.00 | 0.00 | 0.00 | 51 | 1010.0 |
| 20260506113046 | 69 | 148 | 10.0 | 20.0 | 0.00 | 0.00 | 0.00 | 49 | 1009.9 |
| 20260506111551 | 69 | 165 | 10.0 | 22.0 | 0.00 | 0.00 | 0.00 | 50 | 1010.0 |
| 20260506110055 | 70 | 177 | 11.0 | 21.0 | 0.00 | 0.00 | 0.00 | 50 | 1010.1 |
| 20260506104550 | 70 | 189 | 8.0 | 16.0 | 0.00 | 0.00 | 0.00 | 51 | 1010.0 |
| 20260506103047 | 68 | 173 | 6.0 | 11.0 | 0.00 | 0.00 | 0.00 | 50 | 1010.0 |
| 20260506101547 | 68 | 180 | 8.0 | 16.0 | 0.00 | 0.00 | 0.00 | 49 | 1010.0 |
| 20260506100047 | 69 | 229 | 11.0 | 24.0 | 0.00 | 0.00 | 0.00 | 48 | 1009.8 |
| 20260506094615 | 70 | 223 | 9.0 | 16.0 | 0.00 | 0.00 | 0.00 | 46 | 1009.8 |
| 20260506093053 | 71 | 262 | 12.0 | 19.0 | 0.00 | 0.00 | 0.00 | 44 | 1009.8 |
| 20260506091547 | 71 | 221 | 9.0 | 21.0 | 0.00 | 0.00 | 0.00 | 47 | 1009.7 |
| 20260506090049 | 70 | 234 | 13.0 | 20.0 | 0.00 | 0.00 | 0.00 | 45 | 1009.7 |
| 20260506084549 | 70 | 248 | 12.0 | 22.0 | 0.00 | 0.00 | 0.00 | 46 | 1009.6 |
| 20260506083047 | 70 | 234 | 15.0 | 23.0 | 0.00 | 0.00 | 0.00 | 46 | 1009.6 |
| 20260506081550 | 70 | 198 | 14.0 | 22.0 | 0.00 | 0.00 | 0.00 | 45 | 1009.6 |
| 20260506073050 | 68 | 211 | 13.0 | 20.0 | 0.00 | 0.00 | 0.00 | 48 | 1009.6 |
| 20260506071550 | 67 | 262 | 11.0 | 18.0 | 0.00 | 0.00 | 0.00 | 51 | 1009.5 |
| 20260506061546 | 65 | 234 | 9.0 | 19.0 | 0.00 | 0.00 | 0.00 | 54 | 1009.5 |
| 20260506044553 | 56 | 208 | 5.0 | 8.0 | 0.00 | 0.00 | 0.00 | 68 | 1009.4 |
| 20260506043049 | 56 | 200 | 3.0 | 7.0 | 0.00 | 0.00 | 0.00 | 67 | 1009.3 |
| 20260506041548 | 57 | 209 | 6.0 | 12.0 | 0.00 | 0.00 | 0.00 | 65 | 1009.4 |
| 20260506034604 | 57 | 190 | 8.0 | 11.0 | 0.00 | 0.00 | 0.00 | 64 | 1009.0 |
| 20260506033049 | 57 | 207 | 5.0 | 7.0 | 0.00 | 0.00 | 0.00 | 62 | 1008.9 |
| 20260506031601 | 58 | 219 | 7.0 | 14.0 | 0.00 | 0.00 | 0.00 | 59 | 1009.1 |
| 20260506030051 | 61 | 222 | 10.0 | 22.0 | 0.00 | 0.00 | 0.00 | 55 | 1009.2 |
| 20260506024554 | 60 | 229 | 16.0 | 27.0 | 0.00 | 0.00 | 0.00 | 55 | 1009.3 |
| 20260506023050 | 59 | 234 | 11.0 | 25.0 | 0.00 | 0.00 | 0.00 | 55 | 1009.3 |
| 20260506021544 | 58 | 213 | 10.0 | 15.0 | 0.00 | 0.00 | 0.00 | 59 | 1009.4 |
| 20260506020055 | 57 | 226 | 11.0 | 18.0 | 0.00 | 0.00 | 0.00 | 60 | 1009.4 |
| 20260506014553 | 56 | 234 | 11.0 | 15.0 | 0.00 | 0.00 | 0.00 | 62 | 1009.5 |
| 20260506013052 | 55 | 233 | 11.0 | 15.0 | 0.00 | 0.00 | 0.00 | 64 | 1009.5 |
| 20260506011551 | 54 | 230 | 7.0 | 13.0 | 0.00 | 0.00 | 0.00 | 65 | 1009.6 |
| 20260506010056 | 54 | 224 | 8.0 | 14.0 | 0.00 | 0.00 | 0.00 | 65 | 1009.8 |
| 20260506004600 | 54 | 221 | 10.0 | 14.0 | 0.00 | 0.00 | 0.00 | 65 | 1009.8 |
| 20260506003052 | 53 | 205 | 9.0 | 12.0 | 0.00 | 0.00 | 0.00 | 66 | 1010.0 |
| 20260506001554 | 54 | 225 | 8.0 | 12.0 | 0.00 | 0.00 | 0.00 | 66 | 1010.0 |
| 20260506000052 | 53 | 236 | 7.0 | 12.0 | 0.00 | 0.00 | 0.00 | 67 | 1010.1 |
| 20260505234556 | 55 | 248 | 8.0 | 14.0 | 0.00 | 0.00 | 0.00 | 65 | 1010.2 |
| 20260505233043 | 55 | 252 | 10.0 | 17.0 | 0.00 | 0.00 | 0.00 | 64 | 1010.2 |
| 20260505231554 | 54 | 241 | 12.0 | 15.0 | 0.00 | 0.00 | 0.00 | 64 | 1010.1 |
| 20260505230052 | 53 | 255 | 10.0 | 13.0 | 0.00 | 0.00 | 0.00 | 66 | 1010.2 |
| 20260505224552 | 52 | 252 | 10.0 | 13.0 | 0.00 | 0.00 | 0.00 | 67 | 1010.3 |
| 20260505223052 | 51 | 252 | 10.0 | 12.0 | 0.00 | 0.00 | 0.00 | 67 | 1010.3 |
| 20260505221553 | 50 | 256 | 9.0 | 11.0 | 0.00 | 0.00 | 0.00 | 67 | 1010.4 |
| 20260505220046 | 50 | 241 | 7.0 | 10.0 | 0.00 | 0.00 | 0.00 | 67 | 1010.5 |
| 20260505214558 | 50 | 252 | 8.0 | 10.0 | 0.00 | 0.00 | 0.00 | 67 | 1010.6 |
| 20260505213046 | 50 | 254 | 6.0 | 9.0 | 0.00 | 0.00 | 0.00 | 64 | 1010.7 |
| 20260505211612 | 52 | 252 | 6.0 | 8.0 | 0.00 | 0.00 | 0.00 | 62 | 1010.7 |
| 20260505210054 | 53 | 243 | 6.0 | 8.0 | 0.00 | 0.00 | 0.00 | 60 | 1010.8 |
| 20260505204553 | 55 | 250 | 8.0 | 11.0 | 0.00 | 0.00 | 0.00 | 58 | 1010.8 |
| 20260505203059 | 56 | 259 | 11.0 | 13.0 | 0.00 | 0.00 | 0.00 | 56 | 1010.7 |
| 20260505201556 | 55 | 254 | 7.0 | 9.0 | 0.00 | 0.00 | 0.00 | 59 | 1010.6 |
| 20260505200050 | 56 | 260 | 6.0 | 11.0 | 0.00 | 0.00 | 0.00 | 55 | 1010.6 |
| 20260505194606 | 59 | 250 | 8.0 | 10.0 | 0.00 | 0.00 | 0.00 | 50 | 1010.4 |
| 20260505193045 | 61 | 229 | 7.0 | 13.0 | 0.00 | 0.00 | 0.00 | 47 | 1010.5 |
| 20260505191543 | 61 | 236 | 9.0 | 13.0 | 0.00 | 0.00 | 0.00 | 48 | 1010.5 |
| 20260505190052 | 61 | 225 | 7.0 | 10.0 | 0.00 | 0.00 | 0.00 | 48 | 1010.6 |
| 20260505184547 | 62 | 219 | 7.0 | 11.0 | 0.00 | 0.00 | 0.00 | 47 | 1010.5 |
| 20260505183046 | 63 | 222 | 7.0 | 10.0 | 0.00 | 0.00 | 0.00 | 46 | 1010.4 |
| 20260505181555 | 64 | 224 | 7.0 | 10.0 | 0.00 | 0.00 | 0.00 | 44 | 1010.5 |
| 20260505180050 | 65 | 211 | 8.0 | 12.0 | 0.00 | 0.00 | 0.00 | 42 | 1010.3 |
| 20260505174554 | 66 | 229 | 9.0 | 17.0 | 0.00 | 0.00 | 0.00 | 39 | 1010.4 |
| 20260505173051 | 67 | 218 | 11.0 | 18.0 | 0.00 | 0.00 | 0.00 | 36 | 1010.4 |
| 20260505171548 | 68 | 223 | 13.0 | 19.0 | 0.00 | 0.00 | 0.00 | 35 | 1010.6 |
| 20260505170048 | 68 | 233 | 10.0 | 17.0 | 0.00 | 0.00 | 0.00 | 36 | 1010.5 |
| 20260505164605 | 69 | 221 | 8.0 | 20.0 | 0.00 | 0.00 | 0.00 | 35 | 1010.7 |
| 20260505163101 | 69 | 221 | 13.0 | 25.0 | 0.00 | 0.00 | 0.00 | 36 | 1010.7 |
| 20260505161607 | 69 | 227 | 11.0 | 19.0 | 0.00 | 0.00 | 0.00 | 38 | 1010.8 |
| 20260505153051 | 71 | 223 | 12.0 | 22.0 | 0.00 | 0.00 | 0.00 | 33 | 1011.0 |
| 20260505151547 | 72 | 200 | 13.0 | 25.0 | 0.00 | 0.00 | 0.00 | 34 | 1011.0 |